Flag for Germany Weather past 2 weeks in Norden, Lower Saxony, Germany

Now
60 °F

Partly sunny.


Feels Like: 58 °F
Forecast: 54 / 65 °F
Wind: 12 mph from Northwest

Location: Norderney

Current Time: Aug 20, 2014 at 11:39:20 AM

Latest Report: Aug 20, 2014 at 11:00 AM


Visibility: 13 mi

Pressure: 29.88 "Hg

Humidity: 73%

Dew point: 51 °F

Location of NordenLocation

Historic Weather in Norden — Graph

°F

Norden temperature yesterday

Maximum temperature yesterday: 60 °F (at 2:00 PM)
Minimum temperature yesterday: 54 °F (at 3:00 PM)
Average temperature yesterday: 57 °F

Past Weeks' High & Low Weather Summary

 TemperatureHumidityPressure
High78 °F (Aug 6, 4:00 PM)94% (Aug 7, 6:00 AM)30.11 "Hg (Aug 7, 6:00 AM)
Low54 °F (Aug 19, 3:00 PM)36% (Aug 6, 3:00 PM)29.41 "Hg (Aug 18, 9:00 AM)
Average63 °F74%29.78 "Hg
* Reported Aug 5 10:00 AM — Aug 20 10:00 AM, Norden, Weather by CustomWeather, © 2014

Note: Actual official high and low records may vary slightly from our data, if they occured in-between our weather recording intervals... More about our weather records

Advertising

Norden weather history for previous 24 hours

 ConditionsComfort  
Time TempWeatherWind HumidityBarometerVisibility
10:00 AM
Aug 20
56 °FPartly sunny.9 mph75%29.87 "Hg7 mi
9:00 AM59 °FPartly sunny.14 mph74%29.85 "Hg11 mi
8:00 AM59 °FPartly sunny.15 mph70%29.83 "Hg11 mi
7:00 AM58 °FPartly sunny.15 mph70%29.82 "Hg11 mi
6:00 AM58 °FPassing clouds.14 mph74%29.81 "Hg8 mi
5:00 AM58 °FPassing clouds.14 mph70%29.81 "Hg6 mi
4:00 AM59 °FPassing clouds.14 mph68%29.80 "Hg7 mi
3:00 AM56 °FPassing clouds.16 mph71%29.80 "Hg11 mi
2:00 AM56 °FOvercast.14 mph76%29.79 "Hg7 mi
1:00 AM54 °FFog.10 mph84%29.80 "Hg1 mi
12:00 AM57 °FOvercast.12 mph78%29.79 "Hg8 mi
11:00 PM
Aug 19
58 °FOvercast.12 mph76%29.77 "Hg8 mi
10:00 PM55 °FRain. Dense fog.10 mph82%29.76 "Hg1 mi
9:00 PM58 °FOvercast.9 mph81%29.74 "Hg9 mi
8:00 PM56 °FOvercast.7 mph80%29.74 "Hg14 mi
7:00 PM57 °FOvercast.10 mph75%29.73 "Hg6 mi
6:00 PM56 °FLight rain. Overcast.10 mph75%29.73 "Hg2 mi
5:00 PM57 °FOvercast.12 mph76%29.72 "Hg14 mi
4:00 PM58 °FOvercast.10 mph77%29.71 "Hg12 mi
3:00 PM54 °FRain showers. Overcast.10 mph82%29.72 "Hg7 mi
2:00 PM60 °FOvercast.6 mph69%29.70 "Hg22 mi
1:00 PM58 °FOvercast.7 mph68%29.72 "Hg22 mi
12:00 PM58 °FOvercast.8 mph70%29.71 "Hg22 mi
11:00 AM58 °FOvercast.8 mph74%29.71 "Hg19 mi
Weather by CustomWeather, © 2014

See weather overviewHow to use our weather pages